EHI
0 0 0 0 0 0 0 0 0 0 0 0 0 0 0 0 0 0 0 0 0 0 0 0 1 1 2 2 1 0 0 0 0 0 0 0 0 0 0 0 0 0 0
0 0 0 0 0 0 0 0 0 0 0 0 0 0 0 0 0 0 0 0 0 0 0 1 2 2 3 4 3 1 1 0 0 0 0 0 0 0 0 0 0 0 0
0 0 0 0 0 0 0 0 0 0 0 0 0 0 0 0 0 0 0 0 0 0 1 2 3 3 3 4 3 2 1 0 0 0 0 0 0 0 0 0 0 0 0
0 0 0 0 0 0 0 0 0 0 0 0 0 0 0 0 0 0 0 0 0 0 1 2 3 2 1 1 1 1 1 0 0 0 0 0 0 0 0 0 0 0 0
0 0 0 0 0 0 0 0 0 0 0 0 0 0 0 0 0 0 0 0 0 0 1 1 2 1 0 0 0 0 0 0 0 0 0 0 0 0 0 0 0 0 0
0 0 0 0 0 0 0 0 0 0 0 0 0 0 0 0 0 0 0 0 0 0 0 0 1 1 0 0 0 0 0 0 0 0 0 0 0 0 0 0 0 0 0
0 0 0 0 0 0 0 0 0 0 0 0 0 0 0 0 0 0 0 0 0 0 0 0 0 0 0 0 0 0 0 0 0 0 0 0 0 0 0 0 0 0 0
0 0 0 0 0 0 0 0 0 0 0 0 0 0 0 0 0 0 0 0 0 0 0 0 0 0 0 0 0 0 0 1 0 0 0 0 0 0 0 0 0 0 0
0 0 0 0 0 0 0 0 0 0 0 0 0 0 0 0 0 0 0 0 0 0 0 0 0 0 0 0 0 0 0 0 0 0 0 0 0 0 0 0 0 0 0
0 0 0 0 0 0 0 0 0 0 0 0 0 0 0 0 0 0 0 0 0 0 0 0 0 0 0 0 0 0 0 0 0 0 0 0 0 0 0 0 0 0 0
0 0 0 0 0 0 0 0 0 0 0 0 0 0 0 0 0 0 0 0 0 0 0 0 0 0 0 0 0 0 0 0 0 0 0 0 0 0 0 0 0 0 0
0 0 0 0 0 0 0 0 0 0 0 0 0 0 0 0 0 0 0 0 0 0 0 0 0 0 0 0 0 0 0 0 0 0 0 0 0 0 0 0 0 0 0
0 0 0 0 0 0 0 0 0 0 0 0 0 0 0 0 0 0 0 0 0 0 0 0 0 0 0 0 0 0 0 0 0 0 0 0 0 0 0 0 0 0 0
0 0 0 0 0 0 0 0 0 0 0 0 0 0 0 0 0 0 0 0 0 0 0 0 0 0 0 0 0 0 0 0 0 0 0 0 0 0 0 0 0 0 0
0 0 0 0 0 0 0 0 0 0 0 0 0 0 0 0 0 0 0 0 0 0 0 0 0 0 0 0 0 0 0 0 0 0 0 0 0 0 0 0 0 0 0
0 0 0 0 0 0 0 0 0 0 0 0 0 0 0 0 0 0 0 0 0 0 0 0 0 0 0 0 0 0 0 0 0 0 0 0 0 0 0 0 0 0 0
0 0 0 0 0 0 0 0 0 0 0 0 0 0 0 0 0 0 0 0 0 0 0 0 0 0 0 0 0 0 0 0 0 0 0 0 0 0 0 0 0 0 0
0 0 0 0 0 0 0 0 0 0 0 0 0 0 0 0 0 0 0 0 0 0 0 0 0 0 0 0 0 0 0 0 0 0 0 0 0 0 0 0 0 0 0
0 0 0 0 0 0 0 0 0 0 0 0 0 0 0 0 0 0 0 0 0 0 0 0 0 0 0 0 0 0 0 0 0 0 0 0 0 0 0 0 0 0 0
0 0 0 0 0 0 0 0 0 0 0 0 0 0 0 0 0 0 0 0 0 0 0 0 0 0 0 0 0 0 0 0 0 0 0 0 0 0 0 0 0 0 0
0 0 0 0 0 0 0 0 0 0 0 0 0 0 0 0 0 0 0 0 0 0 0 0 0 0 0 0 0 0 0 0 0 0 0 0 0 0 0 0 0 0 0
0 0 0 0 0 0 0 0 0 0 0 0 0 0 0 0 0 0 0 0 0 0 0 0 0 0 0 0 0 0 0 0 0 0 0 0 0 0 0 0 0 0 0
0 0 0 0 0 0 0 0 0 0 0 0 0 0 0 0 0 0 0 0 0 0 0 0 0 0 0 0 0 0 0 0 0 0 0 0 0 0 0 0 0 0 0
0 0 0 0 0 0 0 0 0 0 0 0 0 0 0 0 0 0 0 0 0 0 0 0 0 0 0 0 0 0 0 0 0 0 0 0 0 0 0 0 0 0 0
0 0 0 0 0 0 0 0 0 0 0 0 0 0 0 0 0 0 0 0 0 0 0 0 0 0 0 0 0 0 0 0 0 0 0 0 0 0 0 0 0 0 0
0 0 0 0 0 0 0 0 0 0 0 0 0 0 0 0 0 0 0 0 0 0 0 0 0 0 0 0 0 0 0 0 0 0 0 0 0 0 0 0 0 0 0
Wind_Speed
3 3 2 2 2 2 1 1 1 2 3 4 3 3 2 2 2 2 3 5 3 1 2 4 4 3 3 3 4 4 5 7 7 7 6 5 4 3 2 2 2 2 3
3 3 3 3 3 3 2 1 2 3 3 3 4 3 2 2 3 3 3 4 6 4 2 3 4 3 2 3 3 4 4 4 5 5 5 4 3 2 1 1 1 2 3
4 4 3 3 3 3 3 2 3 3 3 3 3 3 2 2 3 3 3 3 3 5 4 4 4 5 5 6 6 6 6 5 5 4 4 3 2 1 1 1 1 2 2
5 4 4 4 3 3 3 3 3 3 2 2 2 1 1 1 2 2 3 3 3 3 5 7 6 6 6 6 6 6 6 5 4 4 3 3 1 2 3 3 2 1 1
7 5 4 4 3 3 3 3 3 3 3 3 2 1 1 1 0 1 2 3 3 4 4 7 10 9 7 6 5 4 4 4 3 3 2 2 2 2 3 4 2 1 1
6 6 4 4 3 3 3 3 3 3 3 3 3 2 2 1 0 0 1 2 2 3 4 4 4 5 8 8 6 4 4 3 3 2 2 2 2 3 3 4 3 3 2
6 5 4 4 4 4 4 4 3 3 2 3 3 2 2 2 0 0 0 0 1 2 2 3 2 3 3 7 8 7 7 6 5 4 2 1 1 1 2 3 3 4 4
5 5 5 4 5 4 4 5 4 3 2 3 3 3 1 2 2 0 1 1 1 1 0 1 1 1 2 2 4 7 7 7 6 6 5 4 2 1 1 1 2 3 4
4 4 5 4 5 5 5 6 5 5 3 2 1 4 4 4 2 2 1 2 2 2 2 1 2 1 0 1 2 3 5 5 4 5 5 5 4 3 2 2 2 2 3
4 4 4 5 5 4 5 6 6 4 5 3 2 1 2 3 3 1 2 1 2 3 3 3 3 3 2 1 1 1 2 3 3 4 4 6 7 7 7 7 7 7 7
3 4 4 4 4 4 5 5 6 6 5 5 4 3 2 1 2 3 1 2 2 2 3 4 3 3 3 3 2 3 2 2 3 4 4 5 6 7 7 7 8 7 7
2 3 4 4 4 3 4 4 5 7 6 6 5 4 4 4 3 3 2 2 2 3 3 3 4 4 4 4 5 6 4 2 2 3 3 4 5 5 6 6 6 6 5
2 3 3 3 3 3 3 3 4 5 6 7 7 6 5 4 4 4 3 2 2 2 2 3 4 4 5 4 5 8 7 5 4 3 2 2 3 4 5 5 5 5 5
3 3 3 3 3 2 2 3 3 4 4 6 7 7 5 5 4 4 4 4 2 2 2 4 2 5 5 6 7 9 5 8 7 6 5 3 1 2 3 4 4 4 5
3 4 3 3 2 2 2 2 2 3 3 5 5 6 5 4 5 5 4 4 5 3 3 4 3 4 5 5 7 7 6 9 10 8 7 6 4 2 1 1 1 2 4
3 4 3 3 2 2 2 2 1 2 3 3 3 5 5 4 4 5 5 5 5 5 4 3 3 2 4 5 9 7 8 12 12 10 9 8 6 5 4 3 1 2 4
4 4 4 4 3 3 2 2 1 1 1 1 2 4 5 5 5 5 5 5 6 6 6 4 2 2 4 4 4 5 5 6 6 12 11 10 9 8 7 5 4 3 3
4 4 4 4 4 4 3 3 2 2 1 1 1 2 3 3 5 5 5 7 7 7 6 6 3 3 4 3 3 4 5 6 5 10 13 12 11 10 9 8 7 5 4
4 4 4 4 4 4 4 4 3 3 2 2 2 2 2 2 3 4 5 6 6 7 6 5 4 2 2 2 2 3 4 4 5 8 11 13 13 12 11 10 9 7 6
4 4 4 5 4 4 4 4 4 3 3 2 2 2 2 2 3 3 3 4 5 6 6 5 4 3 2 2 2 3 3 4 5 5 7 8 11 14 13 12 11 9 8
4 4 4 5 4 4 5 6 5 5 4 3 3 2 2 3 4 3 2 2 3 4 4 5 5 4 4 3 3 3 3 2 4 4 4 5 6 7 8 12 14 13 11
2 2 4 4 4 4 7 10 8 5 5 5 4 3 3 4 5 5 5 5 4 3 3 3 4 5 5 4 3 3 3 2 3 3 4 4 5 7 7 7 11 13 13
2 2 2 2 4 5 8 8 11 6 5 5 5 4 3 3 4 3 5 6 5 6 5 2 2 3 4 5 5 4 4 4 3 2 3 3 4 6 6 8 14 16 16
4 3 3 3 3 4 6 7 8 6 5 5 5 5 4 4 4 4 4 4 4 4 5 4 3 3 2 2 3 3 3 3 2 2 4 3 3 4 3 6 13 16 16
5 4 4 4 4 5 7 4 3 3 4 4 4 5 5 5 7 6 4 4 5 5 6 7 6 5 5 5 4 2 2 2 2 2 4 3 2 2 2 3 6 13 14
5 5 6 6 6 6 10 9 2 1 2 2 2 4 7 7 7 6 5 5 6 5 3 3 4 5 4 4 5 4 3 3 2 2 3 3 2 1 3 2 1 2 6
Wind_Direction
171 172 175 162 143 129 123 56 39 83 115 113 103 94 69 40 21 11 343 345 346 302 199 177 166 180 201 203 189 179 170 174 174 169 163 158 149 126 99 88 97 88 57
176 178 185 185 173 161 160 138 104 110 114 117 112 108 91 60 36 23 13 4 18 37 71 126 131 123 118 126 131 135 137 149 162 163 160 163 163 153 102 90 118 99 56
186 183 189 202 187 159 157 133 112 105 113 115 122 130 116 81 58 34 22 19 16 30 53 84 96 101 96 97 95 93 98 106 114 130 140 149 164 212 277 287 182 122 54
191 185 195 212 180 152 154 148 135 120 126 137 145 153 129 107 68 43 35 28 28 32 42 64 76 86 95 97 99 99 99 100 104 116 131 145 178 255 277 282 244 166 44
196 191 202 211 173 156 164 169 148 144 157 164 156 117 90 155 107 43 45 36 37 45 41 48 57 62 72 80 88 97 108 122 132 140 151 171 209 255 275 279 264 234 324
197 194 202 202 176 165 174 177 160 147 148 154 129 85 38 3 331 42 29 31 32 45 51 46 40 45 58 60 61 69 85 112 132 150 166 188 224 251 263 273 279 286 299
190 191 197 188 179 190 189 179 157 154 142 138 109 69 19 23 53 216 332 354 349 34 60 51 37 31 34 47 50 61 67 78 84 87 102 137 196 259 272 279 288 296 301
182 186 184 183 184 184 180 178 163 154 154 156 138 122 52 337 316 258 212 212 239 298 210 85 52 34 29 25 34 53 55 62 74 73 70 67 77 69 343 320 312 314 316
178 180 183 181 183 179 184 182 176 166 165 176 157 148 157 209 263 303 264 215 212 235 248 245 225 217 102 27 17 32 50 44 64 70 66 65 64 64 37 355 333 353 37
179 182 179 180 182 184 188 188 181 170 161 173 178 154 150 154 153 253 305 268 220 228 236 237 225 218 207 207 251 257 74 52 56 64 64 67 70 66 57 54 62 65 68
174 177 178 182 187 191 194 188 179 181 178 174 172 161 140 128 134 146 246 300 296 246 226 226 225 219 211 210 223 239 186 92 66 56 50 51 57 59 57 59 61 61 67
157 172 177 184 191 194 196 193 190 189 193 188 188 181 169 170 177 158 174 234 264 271 236 220 219 215 207 207 219 226 210 166 117 84 57 44 43 45 45 44 45 43 44
165 180 169 174 186 197 197 189 191 199 197 199 202 203 195 188 162 155 159 179 231 276 279 241 220 207 205 200 214 223 217 202 184 157 120 77 51 45 39 32 27 20 12
176 171 167 167 176 182 186 185 195 204 202 209 214 209 201 196 176 174 167 160 184 270 275 261 232 210 205 197 207 211 215 211 203 195 187 178 144 79 57 45 32 14 358
166 161 154 142 141 151 166 172 202 215 206 209 212 210 205 197 189 191 182 171 170 206 253 252 243 222 205 199 199 199 202 214 210 207 204 202 196 181 156 104 34 356 339
158 149 144 143 147 153 156 165 200 211 205 209 203 204 208 202 199 196 199 192 187 192 227 245 240 227 195 208 206 199 204 215 217 212 211 212 210 207 207 211 236 305 320
163 161 164 168 174 176 173 167 189 187 196 216 213 206 211 203 205 208 204 199 200 198 225 240 229 216 193 201 198 193 199 207 217 217 217 218 218 219 221 224 231 257 295
180 181 175 178 182 183 182 183 197 183 179 207 228 219 225 216 212 211 208 209 209 205 213 229 225 209 210 202 189 193 201 210 214 222 222 222 223 223 224 224 226 233 251
192 194 189 193 196 192 189 192 193 189 188 202 210 215 232 226 226 220 216 216 214 209 207 214 213 190 177 153 156 195 201 208 213 224 227 227 226 225 224 224 223 227 236
198 205 210 211 209 201 195 191 191 193 192 198 202 204 212 218 235 239 233 229 218 212 208 211 205 186 178 159 163 184 204 207 220 217 223 222 224 228 228 227 226 226 228
220 211 214 220 215 207 204 193 193 194 195 201 206 211 218 226 233 230 229 231 223 226 219 213 208 192 188 175 192 184 205 195 225 212 214 221 220 225 224 229 230 228 223
267 228 222 223 220 226 222 205 190 191 195 202 213 225 240 249 259 260 252 232 214 218 229 229 219 211 204 189 170 171 171 163 249 198 195 230 206 227 228 224 224 222 221
346 309 267 244 244 250 251 234 209 189 194 202 207 214 232 237 247 247 263 261 247 235 223 209 224 222 193 183 171 176 183 190 215 181 171 240 203 231 230 226 225 227 225
7 357 346 325 296 293 280 253 230 200 197 204 204 206 221 247 245 235 240 250 251 245 233 220 208 198 178 161 166 178 193 211 225 185 175 237 217 230 232 224 228 226 224
12 10 7 8 3 345 346 314 249 186 200 211 207 208 214 237 253 242 221 238 256 258 247 232 219 214 207 207 203 192 202 215 241 217 189 223 244 241 247 239 231 228 223
20 24 30 26 24 11 9 10 349 167 195 205 206 219 228 236 254 246 210 216 238 248 228 224 229 232 227 231 230 222 215 221 224 240 189 199 234 227 287 272 270 234 228